SP9KB-14 Weather Reports


Display with metric or nautical units.
time (UTC)temp
F
wind
direction
speed
MPH
gust
MPH
rain 1hr
in
rain 24hr
in
rain mn
in
humidity
%
barometer
mb
20260508023342 50 176 0.0 0.0 0.12 0.51 0.00 99 1038.5
20260508022842 50 179 0.0 0.0 0.12 0.50 0.00 99 1038.4
20260508022341 50 186 0.0 0.0 0.07 0.49 0.00 99 1038.3
20260508021841 50 189 0.0 0.0 0.07 0.48 0.00 99 1038.4
20260508021340 50 221 1.0 1.0 0.12 0.47 0.00 99 1038.4
20260508020840 50 147 0.0 0.0 0.16 0.47 0.00 99 1038.5
20260508020339 50 153 0.0 0.0 0.05 0.45 0.00 99 1038.5
20260508015839 50 180 0.0 0.0 0.07 0.44 0.00 99 1038.6
20260508015338 50 181 0.0 0.0 0.12 0.44 0.00 99 1038.6
20260508014838 50 157 0.0 0.0 0.16 0.43 0.00 99 1038.5
20260508014337 50 165 0.0 0.0 0.43 0.42 0.00 99 1038.8
20260508013837 50 186 0.0 0.0 0.78 0.40 0.00 99 1038.8
20260508013336 50 147 0.0 0.0 0.66 0.34 0.00 99 1038.6
20260508012836 50 164 0.0 1.0 0.35 0.26 0.00 99 1038.7
20260508012335 50 249 0.0 1.0 0.12 0.22 0.00 99 1038.8
20260508011834 50 179 0.0 0.0 0.07 0.20 0.00 99 1038.8
20260508011334 50 179 0.0 0.0 0.07 0.20 0.00 99 1038.7
20260508010833 50 186 0.0 0.0 0.00 0.19 0.00 99 1038.7
20260508010333 50 215 1.0 1.0 0.05 0.19 0.00 99 1038.7
20260508005832 50 188 0.0 0.0 0.00 0.18 0.00 99 1038.7
20260508005332 51 208 0.0 0.0 0.07 0.18 0.00 99 1038.5
20260508004831 51 172 0.0 0.0 0.07 0.18 0.00 99 1038.5
20260508004331 51 168 0.0 0.0 0.00 0.17 0.00 99 1038.3
20260508003830 51 190 0.0 1.0 0.05 0.17 0.00 99 1038.5
20260508003329 51 255 0.0 1.0 0.12 0.17 0.00 99 1038.4
20260508002829 51 136 0.0 0.0 0.12 0.16 0.00 99 1038.2
20260508002328 51 224 1.0 1.0 0.12 0.15 0.00 99 1038.4
20260508001828 51 49 0.0 1.0 0.12 0.14 0.00 99 1038.1
20260508001327 51 183 0.0 0.0 0.12 0.13 0.00 99 1038.2
20260508000826 51 196 0.0 1.0 0.19 0.12 0.00 99 1038.2
20260508000327 51 184 0.0 0.0 0.24 0.11 0.00 99 1038.5
20260507235825 51 186 0.0 0.0 0.24 0.09 0.00 99 1038.1
20260507235325 52 176 0.0 0.0 0.31 0.07 0.00 99 1038.4
20260507234824 52 218 0.0 0.0 0.24 0.04 0.00 99 1038.2
20260507234324 52 212 0.0 0.0 0.12 0.02 0.00 99 1038.3
20260507233823 52 182 0.0 0.0 0.00 0.00 0.00 99 1038.3
20260507233323 52 194 0.0 0.0 0.00 0.00 0.00 99 1038.5
20260507232822 52 182 0.0 0.0 0.00 0.00 0.00 99 1038.3
20260507232322 52 189 0.0 0.0 0.00 0.00 0.00 99 1038.5
20260507231821 53 150 0.0 0.0 0.00 0.00 0.00 99 1038.5
20260507231321 53 163 0.0 0.0 0.00 0.00 0.00 99 1038.4
20260507230820 53 190 0.0 0.0 0.00 0.00 0.00 99 1038.2
20260507230319 53 164 0.0 0.0 0.00 0.00 0.00 99 1038.4
20260507225819 53 179 0.0 0.0 0.00 0.00 0.00 99 1038.2
20260507225318 53 190 0.0 0.0 0.00 0.00 0.00 99 1038.5
20260507224818 53 194 0.0 0.0 0.00 0.00 0.00 99 1038.4
20260507224317 53 178 0.0 0.0 0.00 0.00 0.00 99 1038.4
20260507223817 53 173 0.0 0.0 0.00 0.00 0.00 99 1038.3
20260507223316 53 159 0.0 0.0 0.00 0.00 0.00 99 1038.4
20260507222816 53 240 0.0 0.0 0.00 0.00 0.00 99 1038.5
20260507222315 53 226 0.0 0.0 0.00 0.00 0.00 99 1038.5
20260507221814 53 272 0.0 0.0 0.00 0.00 0.00 99 1038.3
20260507221314 53 155 0.0 0.0 0.00 0.00 0.00 99 1038.3
20260507220813 54 176 1.0 1.0 0.00 0.00 0.00 99 1038.3
20260507220313 54 159 0.0 0.0 0.05 0.00 0.00 99 1038.1
20260507215812 54 169 0.0 0.0 0.12 0.47 0.00 99 1038.2
20260507215312 54 187 0.0 1.0 0.07 0.46 0.00 99 1038.2
20260507214811 54 134 0.0 0.0 0.07 0.45 0.00 99 1037.9
20260507214310 54 135 0.0 1.0 0.07 0.45 0.00 99 1038.0
20260507213810 55 158 0.0 1.0 0.00 0.44 0.00 99 1038.1
20260507213309 55 197 0.0 0.0 0.00 0.44 0.00 99 1038.0
20260507212809 55 160 0.0 0.0 0.00 0.44 0.00 99 1038.2
20260507212308 55 155 0.0 0.0 0.00 0.44 0.00 99 1038.2
20260507211807 55 178 0.0 0.0 0.00 0.44 0.00 99 1038.1
20260507211307 55 168 0.0 0.0 0.00 0.44 0.00 99 1038.1
20260507210806 55 170 0.0 0.0 0.00 0.44 0.00 99 1038.0
20260507210306 55 161 0.0 0.0 0.00 0.44 0.00 99 1037.9
20260507205805 55 170 0.0 0.0 0.00 0.44 0.00 99 1038.1
20260507205306 55 156 0.0 0.0 0.00 0.44 0.00 99 1038.1
20260507204804 55 154 0.0 0.0 0.00 0.44 0.00 99 1037.8
20260507204303 55 155 0.0 0.0 0.00 0.44 0.00 99 1038.0
20260507203803 55 178 0.0 0.0 0.00 0.44 0.00 99 1037.9
20260507203302 55 125 0.0 1.0 0.00 0.44 0.00 99 1037.9
20260507202802 55 166 0.0 0.0 0.00 0.44 0.00 99 1037.3
20260507202301 55 176 0.0 0.0 0.00 0.44 0.00 99 1037.3
20260507201800 55 193 1.0 1.0 0.05 0.44 0.00 99 1037.1
20260507201300 55 175 0.0 0.0 0.12 0.44 0.00 99 1037.2
20260507200759 55 170 0.0 0.0 0.07 0.43 0.00 99 1037.2
20260507200259 55 125 1.0 1.0 0.05 0.42 0.00 99 1037.3
20260507195758 55 52 1.0 2.0 0.12 0.42 0.00 99 1037.2
20260507195257 55 162 0.0 0.0 0.00 0.40 0.00 99 1037.3
20260507194757 55 168 0.0 0.0 0.05 0.40 0.00 99 1037.5
20260507194256 55 148 0.0 1.0 0.05 0.40 0.00 99 1037.9
20260507193756 55 171 0.0 0.0 0.00 0.39 0.00 98 1037.5
20260507193255 55 228 0.0 0.0 0.00 0.39 0.00 98 1037.6
20260507192754 55 234 0.0 0.0 0.00 0.39 0.00 98 1037.4
20260507192254 55 235 0.0 0.0 0.00 0.39 0.00 98 1037.5
20260507191753 55 236 0.0 0.0 0.00 0.39 0.00 98 1037.3
20260507191253 55 236 0.0 0.0 0.00 0.39 0.00 98 1037.1
20260507190752 55 89 0.0 1.0 0.00 0.39 0.00 98 1036.8
20260507190252 55 180 0.0 0.0 0.00 0.39 0.00 98 1036.6
20260507185751 55 47 1.0 2.0 0.00 0.39 0.00 98 1036.7
20260507185250 55 186 0.0 0.0 0.00 0.39 0.00 98 1036.5
20260507184750 55 80 1.0 1.0 0.00 0.39 0.00 98 1036.5
20260507184249 55 175 0.0 0.0 0.00 0.39 0.00 97 1036.5
20260507183749 55 100 1.0 1.0 0.00 0.39 0.00 97 1036.6
20260507183248 55 180 0.0 0.0 0.00 0.39 0.00 97 1036.5
20260507182747 55 36 1.0 2.0 0.07 0.39 0.00 97 1036.7
20260507182247 55 56 3.0 4.0 0.24 0.39 0.00 97 1036.6
20260507181746 55 79 1.0 1.0 0.19 0.37 0.00 97 1036.7
20260507181246 55 133 1.0 1.0 0.31 0.35 0.00 96 1036.4
20260507180745 55 157 0.0 0.0 0.43 0.34 0.00 96 1036.4
20260507180244 55 140 1.0 2.0 0.43 0.30 0.00 96 1036.5
20260507175744 55 162 1.0 1.0 0.66 0.27 0.00 96 1036.2
20260507175243 55 78 3.0 4.0 0.54 0.23 0.00 96 1036.0
20260507174742 55 39 4.0 5.0 0.12 0.16 0.00 96 1036.0
20260507174242 56 196 0.0 1.0 0.00 0.14 0.00 96 1035.9
20260507173741 56 318 1.0 2.0 0.00 0.14 0.00 96 1035.6
20260507173241 56 298 1.0 1.0 0.00 0.14 0.00 96 1035.7
20260507172740 56 164 1.0 1.0 0.00 0.14 0.00 95 1035.3
20260507172240 56 113 0.0 1.0 0.05 0.14 0.00 95 1035.2
20260507171739 56 186 1.0 1.0 0.12 0.14 0.00 95 1035.0
20260507171238 57 120 0.0 0.0 0.19 0.13 0.00 95 1035.2
20260507170738 57 43 1.0 2.0 0.16 0.12 0.00 94 1034.9
20260507170237 57 40 2.0 2.0 0.12 0.10 0.00 94 1035.1
20260507165737 57 52 3.0 5.0 0.31 0.09 0.00 93 1035.2
20260507165237 58 321 1.0 1.0 0.28 0.07 0.00 92 1035.0
20260507164736 59 32 1.0 1.0 0.24 0.04 0.00 91 1034.7
20260507164235 59 307 1.0 2.0 0.12 0.02 0.00 89 1035.0
20260507163735 60 137 1.0 1.0 0.00 0.00 0.00 88 1034.8
20260507163234 60 39 2.0 3.0 0.00 0.00 0.00 87 1034.6
20260507162733 60 54 2.0 2.0 0.00 0.00 0.00 87 1034.9
20260507162233 61 12 2.0 2.0 0.00 0.00 0.00 85 1034.8
20260507161732 61 337 1.0 2.0 0.00 0.00 0.00 85 1034.9
20260507161231 62 103 1.0 2.0 0.00 0.00 0.00 83 1035.0
20260507160731 63 16 2.0 2.0 0.00 0.00 0.00 80 1034.7
20260507160230 65 36 2.0 3.0 0.00 0.00 0.00 74 1034.5
20260507155730 66 215 0.0 1.0 0.00 0.00 0.00 71 1034.3
20260507155229 67 13 1.0 2.0 0.00 0.00 0.00 69 1034.0
20260507154728 67 46 1.0 1.0 0.00 0.00 0.00 66 1034.2
20260507154228 68 171 0.0 0.0 0.00 0.00 0.00 65 1034.3
20260507153727 67 165 0.0 0.0 0.00 0.00 0.00 65 1034.2
20260507153226 68 160 0.0 0.0 0.00 0.00 0.00 66 1034.2
20260507152726 67 167 0.0 0.0 0.00 0.00 0.00 65 1034.2
20260507152225 67 193 0.0 0.0 0.00 0.00 0.00 66 1034.3
20260507151725 67 139 1.0 1.0 0.00 0.00 0.00 64 1034.3
20260507151224 67 173 0.0 0.0 0.00 0.00 0.00 64 1034.1
20260507150724 67 180 0.0 0.0 0.00 0.00 0.00 63 1034.2
20260507150223 68 176 0.0 0.0 0.00 0.00 0.00 64 1034.1
20260507145722 68 173 0.0 1.0 0.00 0.00 0.00 64 1034.2
20260507145222 68 147 1.0 1.0 0.00 0.00 0.00 64 1034.2
20260507144721 69 272 1.0 1.0 0.00 0.00 0.00 63 1034.1
20260507144221 70 159 1.0 2.0 0.00 0.00 0.00 58 1034.0
20260507143720 70 169 1.0 2.0 0.00 0.00 0.00 57 1033.9
20260507142719 70 265 3.0 5.0 0.00 0.00 0.00 55 1033.8
20260507142218 71 158 2.0 2.0 0.00 0.00 0.00 56 1034.0
20260507141718 70 134 3.0 3.0 0.00 0.00 0.00 57 1033.9
20260507141217 71 281 0.0 0.0 0.00 0.00 0.00 58 1033.9
20260507140716 71 109 3.0 3.0 0.00 0.00 0.00 55 1034.0
20260507140216 72 261 3.0 4.0 0.00 0.00 0.00 52 1034.0
20260507135715 73 215 5.0 6.0 0.00 0.00 0.00 50 1033.9
20260507135215 72 163 0.0 1.0 0.00 0.00 0.00 52 1034.0
20260507134714 73 197 4.0 6.0 0.00 0.00 0.00 50 1034.0
20260507134214 72 175 1.0 1.0 0.00 0.00 0.00 53 1034.1
20260507133713 71 12 2.0 3.0 0.00 0.00 0.00 57 1034.0
20260507133212 70 336 0.0 1.0 0.00 0.00 0.00 62 1034.1
20260507132712 70 146 0.0 1.0 0.00 0.00 0.00 66 1034.1
20260507132211 71 194 0.0 1.0 0.00 0.00 0.00 66 1034.3
20260507131711 69 229 1.0 1.0 0.00 0.00 0.00 63 1034.0
20260507131210 69 162 1.0 2.0 0.00 0.00 0.00 63 1034.2
20260507130709 70 191 3.0 4.0 0.00 0.00 0.00 64 1034.3
20260507130209 69 168 1.0 1.0 0.00 0.00 0.00 64 1034.2
20260507125708 70 230 2.0 2.0 0.00 0.00 0.00 65 1034.4
20260507125208 69 195 1.0 2.0 0.00 0.00 0.00 65 1034.2
20260507124707 69 176 1.0 1.0 0.00 0.00 0.00 67 1034.3
20260507124207 68 199 1.0 1.0 0.00 0.00 0.00 67 1034.5
20260507123706 68 200 1.0 1.0 0.00 0.00 0.00 67 1034.4
20260507123206 69 204 1.0 1.0 0.00 0.00 0.00 67 1034.5
20260507122706 69 185 1.0 1.0 0.00 0.00 0.00 67 1034.5
20260507122205 69 159 1.0 1.0 0.00 0.00 0.00 66 1034.3
20260507121704 69 163 1.0 1.0 0.00 0.00 0.00 68 1034.4
20260507121203 68 190 1.0 1.0 0.00 0.00 0.00 68 1034.4
20260507120703 68 183 2.0 3.0 0.00 0.00 0.00 69 1034.5
20260507120202 67 171 0.0 1.0 0.00 0.00 0.00 70 1034.8
20260507115702 68 182 1.0 1.0 0.00 0.00 0.00 72 1034.4
20260507114701 67 202 0.0 0.0 0.00 0.00 0.00 74 1034.6
20260507114200 66 186 0.0 0.0 0.00 0.00 0.00 76 1034.7
20260507113700 65 177 0.0 0.0 0.00 0.00 0.00 76 1034.6
20260507113159 64 142 1.0 1.0 0.00 0.00 0.00 81 1034.9
20260507112659 64 169 0.0 0.0 0.00 0.00 0.00 82 1034.8
20260507112158 64 25 1.0 1.0 0.00 0.00 0.00 81 1034.8
20260507111657 65 176 0.0 0.0 0.00 0.00 0.00 77 1034.8
20260507111157 66 180 0.0 0.0 0.00 0.00 0.00 76 1034.8
20260507110656 67 288 1.0 1.0 0.00 0.00 0.00 71 1034.6
20260507110156 67 173 0.0 0.0 0.00 0.00 0.00 69 1034.8
20260507105655 68 55 1.0 2.0 0.00 0.00 0.00 69 1034.5
20260507105155 68 151 1.0 1.0 0.00 0.00 0.00 68 1034.3
20260507104654 68 159 1.0 2.0 0.00 0.00 0.00 67 1034.5
20260507104154 68 175 0.0 1.0 0.00 0.00 0.00 68 1034.5
20260507103653 67 171 1.0 1.0 0.00 0.00 0.00 69 1034.5
20260507103153 67 173 1.0 1.0 0.00 0.00 0.00 69 1034.5
20260507102653 67 201 0.0 1.0 0.00 0.00 0.00 69 1034.6
20260507102152 67 204 0.0 0.0 0.00 0.00 0.00 71 1034.3
20260507101651 66 175 0.0 0.0 0.00 0.00 0.00 71 1034.6
20260507101151 66 191 1.0 1.0 0.00 0.00 0.00 72 1034.6
20260507100650 66 47 1.0 2.0 0.00 0.00 0.00 72 1034.6
20260507100150 66 220 1.0 1.0 0.00 0.00 0.00 73 1034.3
20260507095647 66 303 1.0 2.0 0.00 0.00 0.00 72 1034.6
20260507095146 66 205 3.0 4.0 0.00 0.00 0.00 72 1034.4
20260507094646 66 279 0.0 1.0 0.00 0.00 0.00 72 1034.5
20260507094145 67 38 2.0 3.0 0.00 0.00 0.00 71 1034.4
20260507093644 67 276 1.0 1.0 0.00 0.00 0.00 71 1034.6
20260507093144 67 141 1.0 2.0 0.00 0.00 0.00 70 1034.3
20260507092643 66 208 0.0 1.0 0.00 0.00 0.00 72 1034.2
20260507092143 66 166 2.0 3.0 0.00 0.00 0.00 72 1034.2
20260507091642 66 184 1.0 2.0 0.00 0.00 0.00 71 1034.0
20260507091142 66 162 2.0 2.0 0.00 0.00 0.00 72 1034.0
20260507090641 66 160 1.0 2.0 0.00 0.00 0.00 72 1034.3
20260507090141 65 64 1.0 2.0 0.00 0.00 0.00 74 1033.9
20260507085640 66 49 1.0 2.0 0.00 0.00 0.00 74 1033.9
20260507085140 66 169 1.0 1.0 0.00 0.00 0.00 74 1033.9
20260507084639 65 187 3.0 4.0 0.00 0.00 0.00 75 1033.7
20260507084139 64 215 1.0 2.0 0.00 0.00 0.00 76 1033.9
20260507083638 64 145 1.0 1.0 0.00 0.00 0.00 77 1033.9
20260507083138 65 209 1.0 2.0 0.00 0.00 0.00 76 1033.7
20260507082637 64 146 2.0 3.0 0.00 0.00 0.00 78 1033.7
20260507082136 64 206 1.0 2.0 0.00 0.00 0.00 78 1033.5
20260507081636 63 233 5.0 7.0 0.00 0.00 0.00 78 1033.5
20260507081137 63 176 1.0 1.0 0.00 0.00 0.00 78 1033.6
20260507080626 63 169 0.0 0.0 0.00 0.00 0.00 79 1033.6
20260507080125 63 198 1.0 3.0 0.00 0.00 0.00 79 1033.5
20260507075625 63 182 2.0 2.0 0.00 0.00 0.00 80 1033.6
20260507075124 63 186 1.0 2.0 0.00 0.00 0.00 79 1033.4
20260507074624 63 159 3.0 4.0 0.00 0.00 0.00 79 1033.3
20260507074123 63 152 2.0 3.0 0.00 0.00 0.00 78 1033.2
20260507073623 63 162 1.0 1.0 0.00 0.00 0.00 79 1033.1
20260507073122 62 162 2.0 3.0 0.00 0.00 0.00 79 1033.0
20260507072621 62 176 1.0 1.0 0.00 0.00 0.00 79 1032.8
20260507072121 62 152 2.0 3.0 0.00 0.00 0.00 79 1033.0
20260507071620 62 171 2.0 4.0 0.00 0.00 0.00 80 1033.0
20260507071120 62 160 4.0 5.0 0.00 0.00 0.00 80 1032.8
20260507070619 62 142 2.0 4.0 0.00 0.00 0.00 80 1032.6
20260507070118 62 165 3.0 6.0 0.00 0.00 0.00 80 1033.0
20260507065618 62 153 5.0 7.0 0.00 0.00 0.00 80 1032.6
20260507065117 62 167 1.0 2.0 0.00 0.00 0.00 80 1032.7
20260507064617 62 155 4.0 6.0 0.00 0.00 0.00 79 1032.7
20260507064116 62 171 3.0 4.0 0.00 0.00 0.00 79 1032.6
20260507063616 62 175 3.0 4.0 0.00 0.00 0.00 79 1032.4
20260507063115 61 158 2.0 3.0 0.00 0.00 0.00 80 1032.4
20260507062615 62 172 5.0 7.0 0.00 0.00 0.00 79 1032.7
20260507062114 62 170 3.0 5.0 0.00 0.00 0.00 79 1032.6
20260507061613 62 179 3.0 5.0 0.00 0.00 0.00 79 1032.4
20260507061113 62 182 3.0 5.0 0.00 0.00 0.00 80 1032.5
20260507060612 61 176 1.0 2.0 0.00 0.00 0.00 80 1032.4
20260507060112 61 176 4.0 6.0 0.00 0.00 0.00 81 1032.2
20260507055611 60 177 2.0 3.0 0.00 0.00 0.00 81 1032.4
20260507055111 60 168 1.0 2.0 0.00 0.00 0.00 82 1032.0
20260507054610 60 166 2.0 2.0 0.00 0.00 0.00 82 1032.2
20260507054110 60 175 1.0 2.0 0.00 0.00 0.00 83 1031.9
20260507053609 59 169 1.0 2.0 0.00 0.00 0.00 83 1032.1
20260507053109 59 175 2.0 2.0 0.00 0.00 0.00 83 1032.0
20260507052608 60 177 2.0 3.0 0.00 0.00 0.00 83 1032.0
20260507052108 60 167 2.0 3.0 0.00 0.00 0.00 83 1031.7
20260507051607 60 173 1.0 1.0 0.00 0.00 0.00 83 1032.0
20260507051106 60 169 0.0 1.0 0.00 0.00 0.00 83 1032.0
20260507050606 60 167 1.0 2.0 0.00 0.00 0.00 82 1031.4
20260507050105 60 163 2.0 3.0 0.00 0.00 0.00 82 1031.8
20260507045605 60 168 0.0 0.0 0.00 0.00 0.00 82 1031.8
20260507045105 60 171 2.0 2.0 0.00 0.00 0.00 82 1031.9
20260507044604 60 169 1.0 2.0 0.00 0.00 0.00 82 1031.6
20260507044103 60 170 2.0 2.0 0.00 0.00 0.00 82 1031.8
20260507043603 60 171 2.0 2.0 0.00 0.00 0.00 81 1031.5
20260507043102 60 174 1.0 2.0 0.00 0.00 0.00 81 1031.8
20260507042602 60 167 1.0 2.0 0.00 0.00 0.00 80 1031.6
20260507042101 60 165 2.0 3.0 0.00 0.00 0.00 80 1031.4
20260507041601 60 169 1.0 1.0 0.00 0.00 0.00 79 1031.5
20260507041100 60 167 0.0 1.0 0.00 0.00 0.00 79 1031.4
20260507040600 61 166 1.0 1.0 0.00 0.00 0.00 79 1031.4
20260507040100 61 175 2.0 4.0 0.00 0.00 0.00 79 1031.2
20260507035559 61 165 2.0 2.0 0.00 0.00 0.00 78 1031.1
20260507035058 61 173 2.0 3.0 0.00 0.00 0.00 78 1031.2
20260507034557 61 183 3.0 4.0 0.00 0.00 0.00 78 1031.1
20260507034057 61 163 2.0 2.0 0.00 0.00 0.00 77 1031.3
20260507033556 61 167 1.0 1.0 0.00 0.00 0.00 77 1031.1
20260507033056 61 164 1.0 2.0 0.00 0.00 0.00 78 1030.9
20260507032555 61 167 0.0 1.0 0.00 0.00 0.00 78 1031.1
20260507032055 61 166 0.0 1.0 0.00 0.00 0.00 78 1030.9
20260507031554 61 167 1.0 1.0 0.00 0.00 0.00 78 1030.7
20260507031053 61 167 1.0 1.0 0.00 0.00 0.00 78 1030.7
20260507030553 61 167 0.0 1.0 0.00 0.00 0.00 78 1030.9
20260507030052 61 166 0.0 0.0 0.00 0.00 0.00 78 1030.6
20260507025552 61 166 0.0 1.0 0.00 0.00 0.00 78 1030.7
20260507025052 61 167 0.0 0.0 0.00 0.00 0.00 78 1030.7
20260507024551 60 166 0.0 1.0 0.00 0.00 0.00 78 1030.9
20260507024050 60 166 0.0 0.0 0.00 0.00 0.00 79 1030.7